Hourly Data Report for October 05, 2017

All times are specified in Local Standard Time (LST). Add 1 hour to adjust for Daylight Saving Time where and when it is observed.

TUKTOYAKTUK
NORTHWEST TERRITORIES

69°26'00.000" N
133°01'00.000" W
4.60 m
2203914
71985
ZUB

Download Data

Hourly Data (October 2017)
Hourly Data Report for October 5, 2017
Temp Definition
°C
Dew Point Temp Definition
°C
Rel Hum Definition
%
Wind Dir Definition
10's deg

Wind Spd Definition
km/h
Visibility Definition
km
Stn Press Definition
kPa
Hmdx Definition


Wind Chill Definition


Weather Definition


TIME
00:00 2.1 0.1 87 LegendMM LegendMM   100.56     LegendNANA
01:00 1.9 -0.2 86 LegendMM LegendMM   100.46     LegendNANA
02:00 2.0 -0.4 84 LegendMM LegendMM   100.33     LegendNANA
03:00 1.7 -0.2 88 LegendMM LegendMM   100.19     LegendNANA
04:00 1.6 0.1 90 LegendMM LegendMM   100.07     LegendNANA
05:00 1.3 0.0 92 LegendMM LegendMM   99.94     LegendNANA
06:00 0.7 -0.2 94 LegendMM LegendMM   99.81     LegendNANA
07:00 1.2 0.2 93 LegendMM LegendMM   99.68     LegendNANA
08:00 1.6 0.6 93 LegendMM LegendMM   99.56     LegendNANA
09:00 2.0 0.9 93 LegendMM LegendMM   99.46     LegendNANA
10:00 2.2 1.3 93 LegendMM LegendMM   99.40     LegendNANA
11:00 2.8 1.8 93 LegendMM LegendMM   99.35     LegendNANA
12:00 4.0 3.0 93 LegendMM LegendMM   99.27     LegendNANA
13:00 4.6 3.4 92 LegendMM LegendMM   99.23     LegendNANA
14:00 4.8 3.3 90 LegendMM LegendMM   99.24     LegendNANA
15:00 5.7 3.6 86 LegendMM LegendMM   99.22     LegendNANA
16:00 6.5 3.9 83 LegendMM LegendMM   99.18     LegendNANA
17:00 6.5 3.7 82 LegendMM LegendMM   99.16     LegendNANA
18:00 5.9 3.4 84 LegendMM LegendMM   99.14     LegendNANA
19:00 4.3 2.8 90 LegendMM LegendMM   99.12     LegendNANA
20:00 3.4 2.3 92 LegendMM LegendMM   99.09     LegendNANA
21:00 4.0 2.7 91 LegendMM LegendMM   99.07     LegendNANA
22:00 3.9 2.5 91 LegendMM LegendMM   99.03     LegendNANA
23:00 2.8 1.6 92 LegendMM LegendMM   99.05     LegendNANA

Notes on Data Quality.

Legend

  • E = Estimated
  • M = Missing
  • NA = Not Available
  • ‡ = Partner data that is not subject to review by the National Climate Archives
Date modified: